WetterOnline ( https://www.wetteronline.de )

Wetter aktuell Friesoythe

Aktuelles Wetter: Friesoythe-Altenoythe (6m)

6-stündlich | Neueste Meldungen
Ortszeit Temperatur Wetter
Fr, 23.08. 8:00 13.2° C leicht bewölkt
Fr, 23.08. 2:00 10.8° C wolkenlos
Do, 22.08. 20:00 21.5° C fast wolkenlos
Do, 22.08. 14:00 24.2° C wolkenlos
Do, 22.08. 8:00 12.0° C wolkenlos
Do, 22.08. 2:00 11.1° C wolkig
Mi, 21.08. 20:00 19.3° C leicht bewölkt
Mi, 21.08. 14:00 19.7° C wolkig
Ortszeit Temperatur Wetter
Fr, 23.08. 9:30 18.3° C leicht bewölkt
Fr, 23.08. 9:20 18.3° C leicht bewölkt
Fr, 23.08. 9:10 17.6° C leicht bewölkt
Fr, 23.08. 9:00 16.8° C leicht bewölkt
Fr, 23.08. 8:50 16.8° C leicht bewölkt
Fr, 23.08. 8:40 16.6° C leicht bewölkt
Fr, 23.08. 8:30 15.5° C leicht bewölkt
Fr, 23.08. 8:00 13.2° C leicht bewölkt
Fr, 23.08. 7:30 11.4° C wolkenlos
Fr, 23.08. 7:00 9.0° C leicht bewölkt
Fr, 23.08. 6:30 8.4° C Nebel
Ortszeit Relative Feuchte Sichtweite
Fr, 23.08. 8:00 96% 3.8 km
Fr, 23.08. 2:00 97% 8 km
Do, 22.08. 20:00 65% 50 km
Do, 22.08. 14:00 41% 35 km
Do, 22.08. 8:00 84% 29 km
Do, 22.08. 2:00 92% 26 km
Mi, 21.08. 20:00 71% 45 km
Mi, 21.08. 14:00 51% 50 km
Ortszeit Relative Feuchte Sichtweite
Fr, 23.08. 9:30 76% 15 km
Fr, 23.08. 9:20 76% -
Fr, 23.08. 9:10 77% -
Fr, 23.08. 9:00 84% 10 km
Fr, 23.08. 8:50 84% -
Fr, 23.08. 8:40 86% -
Fr, 23.08. 8:30 89% 7 km
Fr, 23.08. 8:00 96% 3.8 km
Fr, 23.08. 7:30 99% 2.9 km
Fr, 23.08. 7:00 99% 1.5 km
Fr, 23.08. 6:30 98% 0.5 km
Ortszeit Niederschlagsmenge Niederschlagsart
Fr, 23.08. 8:00 0.0 l/m2 in 12 Std. -
Fr, 23.08. 2:00 0.0 l/m2 in 6 Std. -
Do, 22.08. 20:00 0.0 l/m2 in 12 Std. -
Do, 22.08. 14:00 0.0 l/m2 in 6 Std. -
Do, 22.08. 8:00 0.0 l/m2 in 12 Std. -
Do, 22.08. 2:00 0.0 l/m2 in 6 Std. -
Mi, 21.08. 20:00 0.0 l/m2 in 12 Std. -
Mi, 21.08. 14:00 0.0 l/m2 in 6 Std. -
Ortszeit Niederschlagsmenge Niederschlagsart
Fr, 23.08. 9:30 0.0 l/m2 in 1 Std. -
Fr, 23.08. 9:20 keine Meldung -
Fr, 23.08. 9:10 keine Meldung -
Fr, 23.08. 9:00 0.0 l/m2 in 1 Std. -
Fr, 23.08. 8:50 keine Meldung -
Fr, 23.08. 8:40 keine Meldung -
Fr, 23.08. 8:30 0.0 l/m2 in 1 Std. -
Fr, 23.08. 8:00 0.0 l/m2 in 1 Std. -
Fr, 23.08. 7:30 0.0 l/m2 in 1 Std. -
Fr, 23.08. 7:00 0.0 l/m2 in 1 Std. -
Fr, 23.08. 6:30 0.0 l/m2 in 1 Std. -
Ortszeit Stärke Spitze Richtung
km/h Bft. km/h Grad Sektor
Fr, 23.08. 8:00 4 1 7 200° S
Fr, 23.08. 2:00 4 1 7 150° SO
Do, 22.08. 20:00 7 2 36 280° W
Do, 22.08. 14:00 18 3 32 220° SW
Do, 22.08. 8:00 4 1 11 110° O
Do, 22.08. 2:00 7 2 11 120° SO
Mi, 21.08. 20:00 0 0 22 - -
Mi, 21.08. 14:00 11 2 25 270° W
Ortszeit Stärke Spitze Richtung
km/h Bft. km/h Grad Sektor
Fr, 23.08. 9:30 4 1 7 200° S
Fr, 23.08. 9:20 4 1 - 200° S
Fr, 23.08. 9:10 6 1 - 190° S
Fr, 23.08. 9:00 4 1 7 190° S
Fr, 23.08. 8:50 4 1 - 190° S
Fr, 23.08. 8:40 4 1 - 190° S
Fr, 23.08. 8:30 2 1 4 180° S
Fr, 23.08. 8:00 4 1 7 200° S
Fr, 23.08. 7:30 4 1 4 180° S
Fr, 23.08. 7:00 4 1 7 160° S
Fr, 23.08. 6:30 0 0 4 - -
Ortszeit Untergrenze Bedeckung Gattung
total tief tief mittel hoch
Fr, 23.08. 8:00 9000 m 3/8 0/8 - - -
Fr, 23.08. 2:00 - 0/8 0/8 - - -
Do, 22.08. 20:00 9000 m 1/8 0/8 - - -
Do, 22.08. 14:00 - 0/8 0/8 - - -
Do, 22.08. 8:00 - 0/8 0/8 - - -
Do, 22.08. 2:00 8700 m 8/8 0/8 - - -
Mi, 21.08. 20:00 7200 m 7/8 0/8 - - -
Mi, 21.08. 14:00 1800 m 6/8 6/8 - - -
Ortszeit Bedeckungsgrad in Achtel und Wolkenuntergrenze
Fr, 23.08. 9:30 3(9000m)
Fr, 23.08. 9:20 3(9000m)
Fr, 23.08. 9:10 2(9000m) 3(10500m)
Fr, 23.08. 9:00 1(10500m) 3(10500m) 4(10500m)
Fr, 23.08. 8:50 1(10500m) 3(10500m)
Fr, 23.08. 8:40 1(9000m) 2(10500m) 4(10500m)
Fr, 23.08. 8:30 4(9000m) 5(10500m)
Fr, 23.08. 8:00 2(9000m) 3(10500m)
Fr, 23.08. 7:30 1(10500m)
Fr, 23.08. 7:00 4(10500m)
Fr, 23.08. 6:30 keine Wolken
Ortszeit Luftdruck NN (hPa) Tendenz (hPa in 3 Std.)
Fr, 23.08. 8:00 1026 + 0,4
Fr, 23.08. 2:00 1026 + 0,5
Do, 22.08. 20:00 1024 + 0,1
Do, 22.08. 14:00 1025 - 0,8
Do, 22.08. 8:00 1026 - 0,6
Do, 22.08. 2:00 1027 - 0,6
Mi, 21.08. 20:00 1027 - 0,7
Mi, 21.08. 14:00 1028 - 0,4
Ortszeit Luftdruck NN (hPa) Tendenz (hPa in 3 Std.)
Fr, 23.08. 9:30 1027 + 0,7
Fr, 23.08. 9:20 1027 keine Meldung
Fr, 23.08. 9:10 1027 keine Meldung
Fr, 23.08. 9:00 1027 + 0,7
Fr, 23.08. 8:50 1027 keine Meldung
Fr, 23.08. 8:40 1027 keine Meldung
Fr, 23.08. 8:30 1026 + 0,6
Fr, 23.08. 8:00 1026 + 0,4
Fr, 23.08. 7:30 1026 + 0,2
Fr, 23.08. 7:00 1026 0,0
Fr, 23.08. 6:30 1026 0,0
Ortszeit Schneehöhe (cm)
Fr, 23.08. 8:00 -
Fr, 23.08. 2:00 -
Do, 22.08. 20:00 -
Do, 22.08. 14:00 -
Do, 22.08. 8:00 -
Do, 22.08. 2:00 -
Mi, 21.08. 20:00 -
Mi, 21.08. 14:00 -
Ortszeit Schneehöhe (cm)
Fr, 23.08. 9:30 -
Fr, 23.08. 9:20 -
Fr, 23.08. 9:10 -
Fr, 23.08. 9:00 -
Fr, 23.08. 8:50 -
Fr, 23.08. 8:40 -
Fr, 23.08. 8:30 -
Fr, 23.08. 8:00 -
Fr, 23.08. 7:30 -
Fr, 23.08. 7:00 -
Fr, 23.08. 6:30 -
Link zu dieser Seite / Seite empfehlen

Das Wetter in ...